Deer Park, WA
on Sunday, February 17, 2013

Sunday
Previous Day Next Day
Daily Summary
 ActualAverageRecord
Temperature
Mean Temperature °F 30°F  
Max Temperature 44°F 40°F 53°F (2007)
Min Temperature 19°F 21°F 5°F (2006)
Degree Days
Heating Degree Days 33 35  
Month to date heating degree days 587 603  
Since 1 July heating degree days 4695 4999  
Cooling Degree Days 0 0  
Month to date cooling degree days 0 0  
Year to date cooling degree days 0 0  
Moisture
Dew Point 25°F   
Average Humidity 72    
Maximum Humidity 100    
Minimum Humidity 43    
Precipitation
Precipitation 0.00 in 0.05 in 0.35 in (2004)
Month to date precipitation 0.03 1.05  
Year to date precipitation 1.53 3.68  
Wind
Wind Speed 3 mph   
Max Wind Speed 10 mph   
Max Gust Speed 14 mph   
Visibility 7 miles   
Events Fog   

Key: T is trace of precipitation, MM is missing value
Source: NWS Daily Summary
Time(PST)TemperatureDew PointHumidity Pressure Visibility Wind DirectionWind SpeedGust SpeedPrecipitationEvents Conditions
12:03 AM 26.6°F 24.8°F 93% 29.92 in 0.8 miles Calm Calm - N/A   Scattered Clouds
12:39 AM 24.8°F 23.0°F 93% 29.92 in 1.0 miles SE 4.6 mph - N/A   Mist
12:43 AM 26.6°F 24.8°F 93% 29.92 in 2.0 miles SSE 4.6 mph - N/A   Partly Cloudy
12:51 AM 24.8°F 24.8°F 100% 29.93 in 3.0 miles ESE 4.6 mph - N/A   Partly Cloudy
12:53 AM 25.0°F 24.1°F 96% 29.99 in 3.0 miles ESE 3.5 mph - N/A   Partly Cloudy
1:53 AM 28.9°F 28.0°F 96% 30.00 in 10.0 miles SSE 5.8 mph - N/A   Overcast
2:53 AM 28.9°F 28.0°F 96% 30.01 in 10.0 miles Calm Calm - N/A   Overcast
3:53 AM 30.0°F 28.0°F 92% 30.01 in 10.0 miles SE 5.8 mph - N/A   Overcast
4:53 AM 28.0°F 27.0°F 96% 30.03 in 10.0 miles SE 5.8 mph - N/A   Clear
5:53 AM 24.1°F 23.0°F 96% 30.04 in 9.0 miles SE 3.5 mph - N/A   Clear
6:25 AM 24.8°F 24.8°F 100% 29.98 in 1.8 miles SSE 4.6 mph - N/A   Clear
6:27 AM 24.8°F 24.8°F 100% 29.98 in 1.0 miles SSE 3.5 mph - N/A   Mist
6:34 AM 24.8°F 21.2°F 86% 29.98 in 0.5 miles Calm Calm - N/A Fog Light Freezing Fog
6:53 AM 23.0°F 21.9°F 96% 30.06 in 0.2 miles Calm Calm - N/A Fog Light Freezing Fog
7:51 AM 23.0°F 21.2°F 93% 30.01 in 0.5 miles ESE 3.5 mph - N/A Fog Light Freezing Fog
7:53 AM 21.9°F 19.9°F 92% 30.08 in 0.5 miles SE 3.5 mph - N/A Fog Light Freezing Fog
8:03 AM 24.8°F 24.8°F 100% 30.01 in 3.0 miles SSE 4.6 mph - N/A   Clear
8:53 AM 28.0°F 27.0°F 96% 30.08 in 10.0 miles ESE 4.6 mph - N/A   Clear
9:53 AM 33.1°F 28.0°F 82% 30.09 in 10.0 miles SE 4.6 mph - N/A   Clear
10:53 AM 37.0°F 28.0°F 70% 30.08 in 10.0 miles North - - N/A   Clear
11:53 AM 42.1°F 26.1°F 53% 30.08 in 10.0 miles Calm Calm - N/A   Partly Cloudy
12:53 PM 42.1°F 21.9°F 45% 30.08 in 10.0 miles WNW 6.9 mph - N/A   Overcast
1:53 PM 41.0°F 23.0°F 49% 30.07 in 10.0 miles West 6.9 mph - N/A   Overcast
2:53 PM 39.9°F 25.0°F 55% 30.07 in 10.0 miles West 4.6 mph - N/A   Mostly Cloudy
3:53 PM 41.0°F 21.9°F 47% 30.08 in 10.0 miles NW 5.8 mph - N/A   Scattered Clouds
4:53 PM 36.0°F 23.0°F 59% 30.09 in 10.0 miles WSW 4.6 mph - N/A   Partly Cloudy
5:53 PM 30.0°F 21.9°F 72% 30.12 in 10.0 miles Calm Calm - N/A   Scattered Clouds
6:53 PM 28.9°F 24.1°F 82% 30.12 in 10.0 miles Calm Calm - N/A   Overcast
7:53 PM 30.9°F 26.1°F 82% 30.13 in 10.0 miles Calm Calm - N/A   Overcast
9:53 PM 30.9°F 25.0°F 79% 30.14 in 10.0 miles Calm Calm - N/A   Overcast
10:53 PM 28.9°F 25.0°F 85% 30.14 in 10.0 miles Calm Calm - N/A   Overcast
11:53 PM 30.0°F 26.1°F 85% 30.13 in 10.0 miles Calm Calm - N/A   Overcast
Moon Phase
Feb. 17 Feb. 17 Feb. 25 Mar. 04 Mar. 11
Sunrise:06:51 AM (PST) Moon Rise:10:12 AM (PST)2/17
Sunset:05:16 PM (PST) Moon Set:12:50 AM (PST)2/17

Copyright © 2014 The Weather Underground, Inc.